Data for 11/21/2016

Time Sea-Level Adjusted Pressure Absolute Pressure Temperature Relative Humidity Dew Point   
(mb) (inHg) (mb) (inHg) (C) (F) (%) (C) (F)
00:05 1012 29.88 841 24.83 5.3 41.5 50 -4.3 24.3
00:10 1012 29.88 841 24.83 5.2 41.4 51 -4.1 24.5
00:15 1012 29.88 841 24.83 5.1 41.2 52 -4.1 24.7
00:20 1011 29.85 841 24.83 5.1 41.2 52 -4 24.8
00:25 1011 29.85 841 24.83 5.1 41.2 51 -4.2 24.4
00:30 1011 29.85 841 24.83 5.2 41.3 51 -4 24.8
00:35 1011 29.85 841 24.83 5 41.1 50 -4.5 24
00:40 1011 29.85 841 24.83 5 41 51 -4.2 24.4
00:45 1011 29.85 841 24.83 4.8 40.6 52 -4.3 24.2
00:50 1011 29.85 841 24.83 4.7 40.5 52 -4.4 24.1
00:55 1011 29.85 840 24.81 5 41 50 -4.5 23.8
01:00 1011 29.85 840 24.81 5.2 41.4 50 -4.2 24.4
01:05 1011 29.85 840 24.81 5.3 41.6 47 -5.1 22.8
01:10 1011 29.85 840 24.81 5.6 42.1 47 -4.8 23.3
01:15 1011 29.85 840 24.81 6.1 43 43 -5.6 21.9
01:20 1011 29.85 840 24.81 6.7 44.1 43 -5 23
01:25 1011 29.85 840 24.81 7.4 45.4 37 -6.2 20.9
01:30 1011 29.85 840 24.81 7.1 44.8 40 -5.4 22.2
01:35 1011 29.85 840 24.81 6.9 44.5 39 -5.9 21.3
01:40 1011 29.85 840 24.81 7 44.5 36 -6.9 19.5
01:45 1011 29.85 840 24.81 7.7 45.8 36 -6.5 20.3
01:50 1011 29.85 840 24.81 7.9 46.2 36 -6.4 20.5
01:55 1011 29.85 840 24.81 8.4 47 32 -7.3 18.9
02:00 1011 29.85 840 24.81 9.5 49.1 29 -7.4 18.6
02:05 1011 29.85 840 24.81 8.4 47.2 41 -4 24.8
02:10 1011 29.85 840 24.81 6.8 44.3 42 -5.2 22.6
02:15 1011 29.85 840 24.81 7 44.6 40 -5.6 22
02:20 1011 29.85 840 24.81 7.1 44.7 44 -4.5 23.9
02:25 1011 29.85 840 24.81 6.4 43.5 46 -4.3 24.3
02:30 1011 29.85 840 24.81 6 42.8 47 -4.5 23.9
02:35 1011 29.85 840 24.81 5.9 42.5 48 -4.4 24
02:40 1011 29.85 840 24.81 5.7 42.3 47 -4.8 23.4
02:45 1011 29.85 840 24.81 6 42.7 44 -5.5 22.2
02:50 1011 29.85 840 24.81 6.4 43.5 43 -5.4 22.4
02:55 1011 29.85 840 24.81 6.3 43.3 49 -3.7 25.4
03:00 1011 29.85 840 24.81 5.6 42 47 -4.8 23.3
03:05 1011 29.85 840 24.81 5.4 41.8 51 -3.8 25.1
03:10 1011 29.85 840 24.81 4.6 40.3 54 -3.9 25
03:15 1011 29.85 840 24.81 4.2 39.5 52 -4.9 23.2
03:20 1011 29.85 840 24.81 4.9 40.7 51 -4.5 24
03:25 1011 29.85 840 24.81 4.9 40.9 48 -5.1 22.9
03:30 1011 29.85 840 24.81 5.4 41.7 47 -5.1 22.8
03:35 1011 29.85 840 24.81 5.6 42.2 45 -5.3 22.4
03:40 1011 29.85 840 24.81 5.6 42.1 47 -5 23.1
03:45 1011 29.85 840 24.81 5.5 41.9 44 -5.7 21.7
03:50 1011 29.85 840 24.81 6.4 43.4 42 -5.7 21.8
03:55 1011 29.85 840 24.81 6.8 44.2 39 -6.2 20.8
04:00 1011 29.85 840 24.81 6.9 44.4 39 -6 21.3
04:05 1011 29.85 840 24.81 7 44.5 39 -6.2 20.8
04:10 1011 29.85 840 24.81 7.2 44.9 38 -6.3 20.6
04:15 1011 29.85 841 24.83 7 44.7 39 -6 21.2
04:20 1011 29.85 841 24.83 6.8 44.2 40 -5.9 21.3
04:25 1011 29.85 841 24.83 7 44.5 39 -6 21.2
04:30 1011 29.85 841 24.83 7.1 44.7 40 -5.6 22
04:35 1011 29.85 840 24.81 6.8 44.2 39 -6.4 20.5
04:40 1011 29.85 841 24.83 7.1 44.7 38 -6.2 20.8
04:45 1011 29.85 841 24.83 7.1 44.8 39 -5.9 21.3
04:50 1011 29.85 841 24.83 6.7 44.1 42 -5.4 22.3
04:55 1011 29.85 841 24.83 5.8 42.4 48 -4.4 24.1
05:00 1011 29.85 841 24.83 4.7 40.5 52 -4.4 24.2
05:05 1011 29.85 841 24.83 4.3 39.7 54 -4.3 24.3
05:10 1011 29.85 841 24.83 5 41.1 46 -5.7 21.8
05:15 1011 29.85 841 24.83 5.6 42.1 45 -5.5 22.1
05:20 1011 29.85 841 24.83 5.6 42 46 -5.2 22.6
05:25 1011 29.85 841 24.83 5.3 41.6 47 -5.2 22.7
05:30 1011 29.85 841 24.83 5.4 41.7 46 -5.2 22.6
05:35 1012 29.88 841 24.83 5.3 41.5 47 -5.1 22.7
05:40 1012 29.88 841 24.83 5.2 41.3 48 -4.9 23.1
05:45 1012 29.88 841 24.83 5.1 41.2 48 -5 22.9
05:50 1012 29.88 841 24.83 5 41 50 -4.5 23.9
05:55 1012 29.88 841 24.83 4.3 39.8 54 -4.1 24.7
06:00 1012 29.88 841 24.83 3.9 38.9 53 -4.9 23.2
06:05 1012 29.88 841 24.83 4.2 39.6 52 -4.9 23.3
06:10 1012 29.88 841 24.83 4.3 39.8 52 -4.7 23.6
06:15 1012 29.88 841 24.83 4.4 40 48 -5.6 21.9
06:20 1012 29.88 841 24.83 5.1 41.1 48 -5.2 22.7
06:25 1012 29.88 841 24.83 4.9 40.9 48 -5 22.9
06:30 1012 29.88 841 24.83 5.1 41.2 45 -5.8 21.6
06:35 1012 29.88 841 24.83 5.2 41.4 48 -4.8 23.3
06:40 1012 29.88 841 24.83 4.8 40.6 48 -5.4 22.3
06:45 1012 29.88 841 24.83 4.7 40.5 49 -5.1 22.9
06:50 1012 29.88 841 24.83 4.9 40.8 48 -5.2 22.6
06:55 1012 29.88 841 24.83 5.3 41.6 44 -6.1 21.1
07:00 1012 29.88 841 24.83 6.1 43 42 -5.8 21.6
07:05 1012 29.88 841 24.83 5.8 42.4 47 -4.5 23.8
07:10 1012 29.88 841 24.83 4.8 40.7 49 -5 23.1
07:15 1012 29.88 841 24.83 4.5 40 50 -5 23
07:20 1012 29.88 841 24.83 4.5 40.1 50 -4.9 23.1
07:25 1011 29.85 841 24.83 4.5 40.2 50 -4.9 23.2
07:30 1011 29.85 841 24.83 4.6 40.3 51 -4.8 23.4
07:35 1011 29.85 841 24.83 4.7 40.4 53 -4.2 24.4
07:40 1012 29.88 841 24.83 4.5 40 51 -4.7 23.5
07:45 1012 29.88 841 24.83 4.6 40.3 51 -4.6 23.7
07:50 1012 29.88 841 24.83 4.9 40.9 49 -4.9 23.2
07:55 1012 29.88 841 24.83 5.2 41.3 48 -4.9 23.2
08:00 1012 29.88 841 24.83 5.7 42.2 46 -4.9 23.2
08:05 1012 29.88 841 24.83 5.7 42.2 49 -4.1 24.6
08:10 1012 29.88 841 24.83 4.9 40.9 53 -3.8 25.2
08:15 1012 29.88 841 24.83 4.4 39.9 55 -4 24.9
08:20 1012 29.88 841 24.83 4.4 40 54 -4 24.8
08:25 1012 29.88 841 24.83 4.5 40.1 56 -3.6 25.6
08:30 1012 29.88 841 24.83 4.1 39.4 60 -3 26.6
08:35 1012 29.88 841 24.83 3.8 38.9 59 -3.4 26
08:40 1012 29.88 841 24.83 4.1 39.4 58 -3.4 25.8
08:45 1012 29.88 841 24.83 4.3 39.8 55 -3.8 25.2
08:50 1012 29.88 842 24.86 4.5 40.1 55 -3.8 25.2
08:55 1012 29.88 842 24.86 4.5 40.1 55 -3.8 25.2
09:00 1013 29.91 842 24.86 4.4 39.8 56 -3.7 25.3
09:05 1013 29.91 842 24.86 4.3 39.8 55 -4 24.8
09:10 1013 29.91 842 24.86 4.5 40.1 54 -4.1 24.5
09:15 1013 29.91 842 24.86 4.6 40.3 51 -4.6 23.8
09:20 1013 29.91 842 24.86 5 41 49 -4.8 23.3
09:25 1013 29.91 842 24.86 5.4 41.7 49 -4.5 23.8
09:30 1013 29.91 842 24.86 5.3 41.6 49 -4.4 24
09:35 1013 29.91 842 24.86 5.2 41.3 51 -4.3 24.3
09:40 1013 29.91 842 24.86 5 41.1 51 -4.2 24.4
09:45 1013 29.91 842 24.86 5 41 51 -4.4 24.1
09:50 1013 29.91 842 24.86 5.1 41.3 50 -4.4 24.1
09:55 1013 29.91 842 24.86 5.3 41.5 50 -4.4 24.2
10:00 1013 29.91 842 24.86 5.4 41.6 50 -4.3 24.2
10:05 1013 29.91 842 24.86 5.5 41.9 49 -4.4 24.1
10:10 1013 29.91 842 24.86 5.6 42.1 49 -4.4 24.2
10:15 1013 29.91 842 24.86 5.7 42.2 48 -4.4 24.1
10:20 1013 29.91 842 24.86 5.7 42.2 49 -4.3 24.2
10:25 1013 29.91 842 24.86 5.7 42.3 51 -3.7 25.4
10:30 1013 29.91 842 24.86 5.1 41.2 52 -3.8 25.1
10:35 1013 29.91 842 24.86 5 41 53 -3.8 25.1
10:40 1013 29.91 842 24.86 5.2 41.3 53 -3.7 25.4
10:45 1013 29.91 842 24.86 5.5 41.9 52 -3.6 25.4
10:50 1013 29.91 842 24.86 5.8 42.5 50 -3.8 25.2
10:55 1013 29.91 842 24.86 6.1 43 49 -3.7 25.4
11:00 1013 29.91 842 24.86 6.2 43.1 49 -3.8 25.2
11:05 1013 29.91 842 24.86 6.4 43.5 48 -3.7 25.4
11:10 1013 29.91 842 24.86 6.5 43.6 49 -3.6 25.5
11:15 1013 29.91 842 24.86 6.6 43.9 48 -3.5 25.7
11:20 1013 29.91 842 24.86 6.7 44 49 -3.4 25.9
11:25 1013 29.91 842 24.86 6.7 44 49 -3.3 26
11:30 1013 29.91 842 24.86 6.6 43.8 49 -3.4 25.9
11:35 1013 29.91 842 24.86 6.4 43.6 50 -3.2 26.3
11:40 1013 29.91 842 24.86 6.4 43.5 51 -3.1 26.5
11:45 1013 29.91 842 24.86 6.4 43.5 52 -2.8 27
11:50 1013 29.91 842 24.86 6.3 43.4 52 -2.7 27.2
11:55 1013 29.91 842 24.86 6.2 43.2 52 -2.8 26.9
12:00 1013 29.91 842 24.86 6.2 43.2 54 -2.5 27.5
12:05 1013 29.91 842 24.86 6.2 43.2 53 -2.7 27.2
12:10 1013 29.91 842 24.86 6.2 43.1 53 -2.6 27.3
12:15 1013 29.91 842 24.86 6.2 43.2 53 -2.6 27.4
12:20 1013 29.91 842 24.86 6.2 43.2 53 -2.7 27.1
12:25 1013 29.91 842 24.86 6.4 43.6 51 -2.9 26.7
12:30 1013 29.91 842 24.86 6.6 43.9 51 -2.8 26.9
12:35 1013 29.91 842 24.86 6.7 44.1 48 -3.4 25.9
12:40 1013 29.91 842 24.86 6.7 44.1 48 -3.5 25.7
12:45 1013 29.91 842 24.86 6.8 44.2 48 -3.5 25.7
12:50 1013 29.91 842 24.86 6.7 44.1 48 -3.5 25.7
12:55 1013 29.91 842 24.86 6.8 44.3 49 -3.2 26.2
13:00 1013 29.91 842 24.86 7 44.6 49 -3 26.5
13:05 1013 29.91 842 24.86 7.1 44.8 48 -3.1 26.4
13:10 1013 29.91 842 24.86 7 44.6 50 -2.7 27.1
13:15 1013 29.91 842 24.86 6.9 44.4 49 -3.1 26.5
13:20 1013 29.91 842 24.86 6.9 44.5 49 -3 26.6
13:25 1013 29.91 842 24.86 7 44.6 47 -3.4 25.9
13:30 1013 29.91 842 24.86 7 44.5 47 -3.5 25.8
13:35 1013 29.91 842 24.86 7 44.7 47 -3.6 25.5
13:40 1012 29.88 842 24.86 7.1 44.7 46 -3.8 25.1
13:45 1012 29.88 842 24.86 7 44.7 42 -4.9 23.2
13:50 1012 29.88 842 24.86 6.9 44.5 43 -4.7 23.6
13:55 1012 29.88 842 24.86 7 44.5 45 -4.3 24.3
14:00 1012 29.88 842 24.86 7 44.6 45 -4.2 24.4
14:05 1012 29.88 842 24.86 7 44.6 45 -4.1 24.7
14:10 1012 29.88 842 24.86 7.1 44.8 44 -4.2 24.4
14:15 1012 29.88 841 24.83 6.9 44.4 44 -4.4 24.1
14:20 1012 29.88 841 24.83 6.9 44.4 43 -4.8 23.4
14:25 1012 29.88 841 24.83 6.9 44.4 43 -4.7 23.5
14:30 1012 29.88 841 24.83 6.8 44.3 44 -4.6 23.7
14:35 1012 29.88 841 24.83 6.8 44.2 44 -4.5 23.8
14:40 1012 29.88 841 24.83 6.8 44.2 44 -4.5 23.9
14:45 1012 29.88 841 24.83 6.8 44.2 44 -4.6 23.8
14:50 1012 29.88 841 24.83 6.9 44.4 44 -4.5 23.9
14:55 1012 29.88 841 24.83 6.9 44.5 44 -4.5 23.9
15:00 1012 29.88 841 24.83 6.8 44.3 44 -4.5 23.9
15:05 1012 29.88 841 24.83 6.8 44.2 45 -4.2 24.4
15:10 1012 29.88 841 24.83 6.8 44.3 44 -4.5 23.8
15:15 1012 29.88 841 24.83 6.8 44.3 45 -4.4 24.1
15:20 1012 29.88 841 24.83 6.7 44.1 45 -4.3 24.2
15:25 1012 29.88 841 24.83 6.8 44.2 45 -4.4 24.1
15:30 1012 29.88 841 24.83 6.8 44.3 44 -4.4 24
15:35 1012 29.88 841 24.83 6.7 44.1 46 -4.1 24.6
15:40 1012 29.88 841 24.83 6.6 43.8 46 -4.3 24.3
15:45 1012 29.88 841 24.83 6.6 43.9 46 -4.2 24.4
15:50 1012 29.88 841 24.83 6.6 43.8 47 -3.9 25
15:55 1012 29.88 841 24.83 6.5 43.7 47 -3.9 24.9
16:00 1012 29.88 841 24.83 6.5 43.7 48 -3.7 25.3
16:05 1012 29.88 841 24.83 6.4 43.6 49 -3.6 25.5
16:10 1012 29.88 841 24.83 6.4 43.5 49 -3.6 25.6
16:15 1012 29.88 841 24.83 6.4 43.5 49 -3.6 25.5
16:20 1012 29.88 841 24.83 6.4 43.5 48 -3.8 25.2
16:25 1012 29.88 842 24.86 6.4 43.5 48 -3.7 25.4
16:30 1012 29.88 842 24.86 6.4 43.6 49 -3.5 25.6
16:35 1012 29.88 842 24.86 6.4 43.5 48 -3.7 25.3
16:40 1013 29.91 842 24.86 6.4 43.5 48 -3.8 25.1
16:45 1013 29.91 842 24.86 6.4 43.5 48 -3.9 25
16:50 1013 29.91 842 24.86 6.3 43.3 49 -3.7 25.3
16:55 1013 29.91 842 24.86 6.3 43.3 51 -3.2 26.2
17:00 1013 29.91 842 24.86 6.2 43.2 52 -2.9 26.8
17:05 1013 29.91 842 24.86 6.2 43.1 53 -2.8 27
17:10 1013 29.91 842 24.86 6.1 43 53 -2.6 27.2
17:15 1013 29.91 842 24.86 6.1 42.9 53 -2.8 27
17:20 1013 29.91 842 24.86 6.1 43 52 -3 26.7
17:25 1013 29.91 842 24.86 6 42.7 52 -3.1 26.5
17:30 1013 29.91 842 24.86 5.9 42.6 52 -3.2 26.3
17:35 1013 29.91 842 24.86 5.8 42.4 53 -3.1 26.5
17:40 1013 29.91 842 24.86 5.6 42 54 -2.9 26.8
17:45 1013 29.91 842 24.86 5.4 41.7 56 -2.7 27.1
17:50 1013 29.91 842 24.86 5.2 41.4 56 -2.7 27.1
17:55 1013 29.91 842 24.86 5.1 41.2 56 -2.9 26.8
18:00 1013 29.91 842 24.86 5 41 57 -2.8 27
18:05 1013 29.91 842 24.86 4.9 40.8 57 -2.8 26.9
18:10 1013 29.91 842 24.86 4.7 40.5 58 -2.9 26.8
18:15 1013 29.91 842 24.86 4.6 40.3 58 -2.9 26.7
18:20 1013 29.91 842 24.86 4.5 40.1 59 -2.8 26.9
18:25 1013 29.91 842 24.86 4.3 39.8 60 -2.8 26.9
18:30 1013 29.91 842 24.86 4.1 39.3 60 -3 26.6
18:35 1013 29.91 842 24.86 3.8 38.8 60 -3.2 26.3
18:40 1013 29.91 842 24.86 3.7 38.7 60 -3.2 26.2
18:45 1013 29.91 842 24.86 3.7 38.6 61 -3.1 26.4
18:50 1013 29.91 842 24.86 3.4 38.1 63 -3 26.6
18:55 1013 29.91 842 24.86 3.2 37.8 63 -3.1 26.5
19:00 1013 29.91 842 24.86 3.2 37.7 63 -3.2 26.3
19:05 1013 29.91 843 24.89 3.1 37.6 63 -3.3 26.1
19:10 1013 29.91 843 24.89 3.1 37.6 62 -3.3 26
19:15 1014 29.94 843 24.89 3.2 37.7 62 -3.4 25.9
19:20 1014 29.94 843 24.89 3.1 37.5 63 -3.3 26.1
19:25 1014 29.94 843 24.89 2.8 37 64 -3.3 26.1
19:30 1014 29.94 843 24.89 2.7 36.8 65 -3.2 26.2
19:35 1014 29.94 843 24.89 2.5 36.4 66 -3.3 26.1
19:40 1014 29.94 843 24.89 2.5 36.5 66 -3.2 26.2
19:45 1014 29.94 843 24.89 2.6 36.6 65 -3.3 26.1
19:50 1014 29.94 843 24.89 2.7 36.9 65 -3.2 26.2
19:55 1014 29.94 843 24.89 2.9 37.2 64 -3.3 26
20:00 1014 29.94 843 24.89 3 37.4 64 -3.2 26.2
20:05 1014 29.94 843 24.89 3.1 37.5 63 -3.3 26.1
20:10 1014 29.94 843 24.89 3.1 37.6 63 -3.3 26.1
20:15 1014 29.94 843 24.89 3.1 37.6 62 -3.6 25.6
20:20 1014 29.94 843 24.89 3.2 37.7 61 -3.6 25.6
20:25 1014 29.94 844 24.92 3.2 37.7 62 -3.5 25.7
20:30 1014 29.94 844 24.92 3.1 37.6 61 -3.6 25.6
20:35 1015 29.97 844 24.92 3.2 37.7 61 -3.5 25.6
20:40 1015 29.97 844 24.92 3.1 37.6 62 -3.4 25.9
20:45 1015 29.97 844 24.92 3 37.3 63 -3.5 25.8
20:50 1015 29.97 844 24.92 3 37.4 62 -3.6 25.6
20:55 1015 29.97 844 24.92 3.1 37.6 61 -3.6 25.5
21:00 1015 29.97 844 24.92 3.2 37.7 61 -3.7 25.3
21:05 1015 29.97 844 24.92 3.2 37.8 61 -3.7 25.4
21:10 1015 29.97 844 24.92 3.3 37.9 61 -3.6 25.4
21:15 1015 29.97 844 24.92 3.3 37.9 60 -3.6 25.5
21:20 1015 29.97 844 24.92 3.3 38 60 -3.6 25.5
21:25 1015 29.97 844 24.92 3.4 38.1 60 -3.6 25.5
21:30 1015 29.97 844 24.92 3.4 38 60 -3.6 25.6
21:35 1015 29.97 844 24.92 3.2 37.8 61 -3.6 25.5
21:40 1015 29.97 844 24.92 3.1 37.6 61 -3.7 25.4
21:45 1015 29.97 845 24.95 3.1 37.6 60 -4 24.9
21:50 1015 29.97 845 24.95 3.1 37.6 59 -4.2 24.4
21:55 1015 29.97 845 24.95 3.1 37.6 59 -4.2 24.5
22:00 1015 29.97 845 24.95 3 37.4 61 -3.9 25
22:05 1015 29.97 845 24.95 2.7 36.9 61 -4 24.8
22:10 1015 29.97 845 24.95 2.7 36.9 61 -4.1 24.6
22:15 1016 30 845 24.95 2.7 36.9 60 -4.3 24.3
22:20 1016 30 845 24.95 2.8 37 59 -4.3 24.2
22:25 1016 30 845 24.95 2.7 36.9 59 -4.4 24.1
22:30 1016 30 845 24.95 2.7 36.9 59 -4.4 24
22:35 1016 30 845 24.95 2.7 36.8 58 -4.7 23.5
22:40 1016 30 845 24.95 2.7 36.8 58 -4.7 23.6
22:45 1016 30 845 24.95 2.7 36.8 58 -4.7 23.5
22:50 1016 30 845 24.95 2.6 36.7 58 -4.8 23.3
22:55 1016 30 845 24.95 2.5 36.6 58 -4.8 23.3
23:00 1016 30 845 24.95 2.5 36.6 58 -5 23
23:05 1016 30 845 24.95 2.6 36.7 58 -4.9 23.2
23:10 1016 30 845 24.95 2.6 36.6 57 -5 23
23:15 1016 30 845 24.95 2.5 36.6 57 -5 22.9
23:20 1016 30 845 24.95 2.5 36.5 57 -5.2 22.6
23:25 1016 30 845 24.95 2.5 36.5 56 -5.4 22.3
23:30 1016 30 845 24.95 2.5 36.4 56 -5.5 22.1
23:35 1016 30 845 24.95 2.4 36.4 56 -5.4 22.2
23:40 1016 30 845 24.95 2.4 36.3 56 -5.6 22
23:45 1016 30 846 24.98 2.3 36.2 56 -5.6 22
23:50 1016 30 845 24.95 2.2 36 56 -5.6 21.9
23:55 1016 30 845 24.95 2.2 35.9 56 -5.7 21.8
24:00 1016 30 846 24.98 2.2 35.9 56 -5.6 21.9